• In Hungary
  • List of Countries
  • For 7 days
  • Water Temperature
  • Satellite Maps
  • Weather Map
  • News
  • Weather Widgets
  • user-avatar
    Login

    Hourly Weather Tergachi

    Today, 19 October, Friday

    Time Temperature Precipitation Wind Pressure Humidity
    00:00 +6°C° 0 mm 1 mps 698 mmHg 40%
    01:00 +6°C° 0 mm 1 mps 698 mmHg 40%
    02:00 +6°C° 0 mm 1 mps 698 mmHg 41%
    03:00 +6°C° 0 mm 1 mps 698 mmHg 41%
    04:00 +6°C° 0 mm 1 mps 698 mmHg 41%
    05:00 +6°C° 0 mm 1 mps 699 mmHg 42%
    06:00 +7°C° 0 mm 1 mps 699 mmHg 42%
    07:00 +7°C° 0 mm 1 mps 699 mmHg 42%
    08:00 +7°C° 0 mm 1 mps 699 mmHg 42%
    09:00 +9°C° 0 mm 1 mps 699 mmHg 39%
    10:00 +10°C° 0 mm 1 mps 699 mmHg 36%
    11:00 +10°C° 0 mm 2 mps 699 mmHg 32%
    12:00 +12°C° 0 mm 2 mps 699 mmHg 32%
    13:00 +12°C° 0 mm 2 mps 699 mmHg 32%
    14:00 +13°C° 0 mm 2 mps 699 mmHg 32%
    15:00 +12°C° 0 mm 2 mps 700 mmHg 34%
    16:00 +10°C° 0 mm 2 mps 700 mmHg 37%
    17:00 +10°C° 0 mm 2 mps 700 mmHg 40%
    18:00 +9°C° 0 mm 2 mps 700 mmHg 41%
    19:00 +8°C° 0 mm 2 mps 701 mmHg 42%
    20:00 +7°C° 0 mm 2 mps 701 mmHg 43%
    21:00 +7°C° 0 mm 2 mps 701 mmHg 42%
    22:00 +7°C° 0 mm 2 mps 701 mmHg 42%
    23:00 +7°C° 0 mm 2 mps 701 mmHg 42%

    Tomorrow, 20 October, Saturday

    Time Temperature Precipitation Wind Pressure Humidity
    00:00 +7°C° 0 mm 2 mps 701 mmHg 42%
    01:00 +6°C° 0 mm 2 mps 701 mmHg 42%
    02:00 +6°C° 0 mm 2 mps 701 mmHg 42%
    03:00 +6°C° 0 mm 2 mps 700 mmHg 42%
    04:00 +6°C° 0 mm 2 mps 700 mmHg 42%
    05:00 +7°C° 0 mm 1 mps 700 mmHg 42%
    06:00 +8°C° 0 mm 1 mps 700 mmHg 42%
    07:00 +9°C° 0 mm 1 mps 701 mmHg 41%
    08:00 +9°C° 0 mm 1 mps 701 mmHg 40%
    09:00 +11°C° 0 mm 1 mps 701 mmHg 37%
    10:00 +12°C° 0 mm 1 mps 701 mmHg 35%
    11:00 +13°C° 0 mm 1 mps 701 mmHg 32%
    12:00 +14°C° 0 mm 1 mps 701 mmHg 31%
    13:00 +14°C° 0 mm 1 mps 700 mmHg 31%
    14:00 +15°C° 0 mm 1 mps 700 mmHg 30%
    15:00 +14°C° 0 mm 1 mps 700 mmHg 33%
    16:00 +14°C° 0 mm 1 mps 700 mmHg 36%
    17:00 +12°C° 0 mm 0 mps 700 mmHg 39%
    18:00 +12°C° 0 mm 1 mps 701 mmHg 39%
    19:00 +12°C° 0 mm 1 mps 701 mmHg 40%
    20:00 +10°C° 0 mm 2 mps 701 mmHg 41%
    21:00 +10°C° 0 mm 2 mps 701 mmHg 41%
    22:00 +9°C° 0 mm 2 mps 701 mmHg 42%
    23:00 +9°C° 0 mm 2 mps 701 mmHg 42%

    Day after tomorrow, 21 October, Sunday

    Time Temperature Precipitation Wind Pressure Humidity
    00:00 +9°C° 0 mm 2 mps 700 mmHg 43%
    01:00 +9°C° 0 mm 2 mps 700 mmHg 43%
    02:00 +8°C° 0 mm 2 mps 700 mmHg 43%
    03:00 +8°C° 0 mm 2 mps 700 mmHg 43%
    04:00 +8°C° 0 mm 2 mps 700 mmHg 42%
    05:00 +8°C° 0 mm 2 mps 700 mmHg 42%
    06:00 +9°C° 0 mm 2 mps 700 mmHg 41%
    07:00 +9°C° 0 mm 2 mps 700 mmHg 40%
    08:00 +11°C° 0 mm 1 mps 700 mmHg 39%
    09:00 +13°C° 0 mm 1 mps 700 mmHg 35%
    10:00 +15°C° 0 mm 1 mps 700 mmHg 31%
    11:00 +18°C° 0 mm 1 mps 700 mmHg 27%
    12:00 +18°C° 0 mm 1 mps 700 mmHg 26%
    13:00 +19°C° 0 mm 1 mps 700 mmHg 25%
    14:00 +20°C° 0 mm 1 mps 700 mmHg 24%
    15:00 +19°C° 0 mm 1 mps 699 mmHg 27%
    16:00 +18°C° 0 mm 1 mps 699 mmHg 30%
    17:00 +16°C° 0 mm 1 mps 699 mmHg 33%
    18:00 +15°C° 0 mm 1 mps 699 mmHg 34%
    19:00 +14°C° 0 mm 1 mps 700 mmHg 34%
    20:00 +14°C° 0 mm 2 mps 700 mmHg 35%
    21:00 +13°C° 0 mm 2 mps 700 mmHg 36%
    22:00 +13°C° 0 mm 2 mps 699 mmHg 36%
    23:00 +12°C° 0 mm 2 mps 699 mmHg 36%

    22 October, Monday

    Time Temperature Precipitation Wind Pressure Humidity
    00:00 +12°C° 0 mm 2 mps 699 mmHg 36%
    01:00 +12°C° 0 mm 2 mps 699 mmHg 36%
    02:00 +10°C° 0 mm 2 mps 698 mmHg 36%
    03:00 +10°C° 0 mm 2 mps 698 mmHg 36%
    04:00 +10°C° 0 mm 2 mps 698 mmHg 36%
    05:00 +10°C° 0 mm 2 mps 698 mmHg 35%
    06:00 +10°C° 0 mm 2 mps 698 mmHg 35%
    07:00 +12°C° 0 mm 1 mps 698 mmHg 34%
    08:00 +13°C° 0 mm 1 mps 698 mmHg 33%
    09:00 +15°C° 0 mm 1 mps 698 mmHg 29%
    10:00 +16°C° 0 mm 1 mps 698 mmHg 26%
    11:00 +19°C° 0 mm 1 mps 698 mmHg 22%
    12:00 +20°C° 0 mm 1 mps 698 mmHg 21%
    13:00 +20°C° 0 mm 1 mps 698 mmHg 21%
    14:00 +21°C° 0 mm 1 mps 697 mmHg 20%
    15:00 +20°C° 0 mm 1 mps 697 mmHg 23%
    16:00 +19°C° 0 mm 1 mps 697 mmHg 27%
    17:00 +18°C° 0 mm 1 mps 697 mmHg 30%
    18:00 +16°C° 0 mm 1 mps 697 mmHg 30%
    19:00 +15°C° 0 mm 1 mps 697 mmHg 31%
    20:00 +14°C° 0 mm 1 mps 697 mmHg 31%
    21:00 +14°C° 0 mm 1 mps 697 mmHg 31%
    22:00 +13°C° 0 mm 2 mps 697 mmHg 32%
    23:00 +13°C° 0 mm 2 mps 697 mmHg 32%

    23 October, Tuesday

    Time Temperature Precipitation Wind Pressure Humidity
    00:00 +13°C° 0 mm 2 mps 697 mmHg 32%
    01:00 +12°C° 0 mm 2 mps 696 mmHg 33%
    02:00 +12°C° 0 mm 2 mps 696 mmHg 33%
    03:00 +12°C° 0 mm 2 mps 696 mmHg 33%
    04:00 +10°C° 0 mm 2 mps 696 mmHg 32%
    05:00 +10°C° 0 mm 2 mps 696 mmHg 32%
    06:00 +12°C° 0 mm 2 mps 696 mmHg 31%
    07:00 +12°C° 0 mm 2 mps 697 mmHg 31%
    08:00 +13°C° 0 mm 2 mps 697 mmHg 30%
    09:00 +15°C° 0 mm 2 mps 697 mmHg 27%
    10:00 +16°C° 0 mm 1 mps 697 mmHg 24%
    11:00 +19°C° 0 mm 1 mps 697 mmHg 21%
    12:00 +19°C° 0 mm 1 mps 697 mmHg 20%
    13:00 +20°C° 0 mm 1 mps 697 mmHg 20%
    14:00 +21°C° 0 mm 1 mps 696 mmHg 20%
    15:00 +20°C° 0 mm 1 mps 696 mmHg 23%
    16:00 +19°C° 0 mm 1 mps 696 mmHg 26%
    17:00 +18°C° 0 mm 1 mps 696 mmHg 29%
    18:00 +16°C° 0 mm 1 mps 697 mmHg 29%
    19:00 +15°C° 0 mm 1 mps 697 mmHg 30%
    20:00 +14°C° 0 mm 1 mps 697 mmHg 31%
    21:00 +14°C° 0 mm 1 mps 697 mmHg 31%
    22:00 +14°C° 0 mm 2 mps 697 mmHg 32%
    23:00 +13°C° 0 mm 2 mps 697 mmHg 32%

    24 October, Wednesday

    Time Temperature Precipitation Wind Pressure Humidity
    00:00 +13°C° 0 mm 2 mps 697 mmHg 32%
    01:00 +13°C° 0 mm 2 mps 696 mmHg 32%
    02:00 +12°C° 0 mm 2 mps 696 mmHg 32%
    03:00 +12°C° 0 mm 2 mps 696 mmHg 31%
    04:00 +12°C° 0 mm 2 mps 696 mmHg 31%
    05:00 +10°C° 0 mm 2 mps 696 mmHg 31%
    06:00 +12°C° 0 mm 2 mps 697 mmHg 30%
    07:00 +13°C° 0 mm 2 mps 697 mmHg 29%
    08:00 +13°C° 0 mm 2 mps 697 mmHg 28%
    09:00 +15°C° 0 mm 2 mps 697 mmHg 25%
    10:00 +17°C° 0 mm 2 mps 697 mmHg 22%
    11:00 +19°C° 0 mm 2 mps 697 mmHg 19%
    12:00 +20°C° 0 mm 1 mps 697 mmHg 18%
    13:00 +21°C° 0 mm 1 mps 697 mmHg 18%
    14:00 +21°C° 0 mm 1 mps 697 mmHg 18%
    15:00 +20°C° 0 mm 1 mps 697 mmHg 21%
    16:00 +20°C° 0 mm 1 mps 697 mmHg 24%
    17:00 +17°C° 0 mm 0 mps 696 mmHg 27%
    18:00 +18°C° 0 mm 1 mps 696 mmHg 27%
    19:00 +16°C° 0 mm 1 mps 697 mmHg 27%
    20:00 +15°C° 0 mm 2 mps 697 mmHg 28%
    21:00 +15°C° 0 mm 2 mps 696 mmHg 28%
    22:00 +14°C° 0 mm 2 mps 696 mmHg 29%
    23:00 +14°C° 0 mm 2 mps 696 mmHg 29%
    Show more